Meteo Giornale » Osservazioni meteo Gran Bretagna » Leeming

ore: 05:50 - Osservazioni Meteo Leeming
Lat. 54° 18' N Lon. 1° 32' W Alt. 40 metri s.l.m.

sereno Europe/London

12 °C

Sereno

Temp. 24 Ore

11 °C

15 °C

Sud/Sud-Ovest

9.3 Km/h

Dew point 9 °C

Umidità 81 %

Visibilità  10 Km

Il sole sorge alle ore 07:51

Il sole tramonta alle ore 17:49

Data e Ora Cielo e Fenomeni T °C DP °C Um. % Pres. hPa Vis. km Vento km/h
Oggi h: 05:50 sereno Sereno 12 9 81 1026 10 S/SO 9.3
Oggi h: 04:50 sereno Sereno 12 10 87 1026 10 O/SO 16.7
Oggi h: 03:50 poco_nuvoloso Poco Nuvoloso 13 10 81 1026 10 SO 14.8
Oggi h: 02:50 sereno Sereno 13 10 81 1026 10 O/NO 27.8
Oggi h: 01:50 poco_nuvoloso Poco Nuvoloso 14 11 82 1025 10 O 33.3
Oggi h: 00:50 sereno Sereno 14 11 82 1025 10 O/NO 29.6
Ieri h: 23:50 poco_nuvoloso Poco Nuvoloso 14 11 82 1025 10 O 29.6
Ieri h: 22:50 molto_nuvoloso Molto Nuvoloso 14 11 82 1025 10 O/NO 13
Ieri h: 21:50 sereno Sereno 14 11 82 1025 10 O 24
Ieri h: 20:50 sereno Sereno 14 11 82 1026 10 N/NO 13
Ieri h: 19:50 sereno Sereno 13 11 87 1026 10 O/NO 20.3
Ieri h: 18:50 nuvoloso Nuvoloso 12 9 81 1026 10 NO 7.4
Ieri h: 17:50 molto_nuvoloso Molto Nuvoloso 13 10 81 1025 10 O 24
Ieri h: 16:50 poco_nuvoloso Poco Nuvoloso 14 10 76 1025 10 O 14.8
Ieri h: 15:50 nuvoloso Nuvoloso 15 10 72 1025 10 O/NO 25.9
Ieri h: 14:50 nuvoloso Nuvoloso 15 10 72 1025 10 O 31.5
Ieri h: 13:50 nuvoloso Nuvoloso 15 10 72 1025 10 O 31.5
Ieri h: 12:50 molto_nuvoloso Molto Nuvoloso 15 9 67 1025 10 O 29.6
Ieri h: 11:50 molto_nuvoloso Molto Nuvoloso 15 9 67 1025 10 O/NO 25.9
Ieri h: 10:50 molto_nuvoloso Molto Nuvoloso 14 8 67 1023 10 O 46.3
Ieri h: 09:50 molto_nuvoloso Molto Nuvoloso 12 7 71 1025 10 O 20.3
Ieri h: 08:50 molto_nuvoloso Molto Nuvoloso 12 7 71 1025 10 O 27.8
Ieri h: 07:50 molto_nuvoloso Molto Nuvoloso 11 7 76 1025 10 O 31.5
Ieri h: 06:50 sereno Sereno 12 7 71 1026 10 O 31.5